Wind_Speed
14 16 18 19 20 21 22 23 24 25 26 27 27 28 29 30 30 30 31 31 31 32 33 33 34 34 34 34 33 33 33 33 34 34 34 35 35 35 36 36 37 37 38 38
13 14 15 17 18 19 19 20 21 22 23 25 25 26 27 28 28 29 29 31 31 31 32 33 33 33 33 33 33 33 34 34 35 35 35 35 35 36 36 36 36 37 37 38
11 12 13 14 16 17 18 18 18 20 21 22 24 25 26 27 27 28 29 30 31 31 32 32 32 33 33 34 34 34 34 35 35 35 35 35 36 36 36 36 37 37 37 37
9 10 11 13 14 15 16 16 16 17 18 19 21 22 24 25 26 27 27 28 29 30 30 31 32 33 33 34 34 35 35 35 35 35 36 36 36 36 36 36 36 36 36 36
8 9 10 11 12 13 13 14 15 15 16 18 20 21 22 24 25 26 27 27 28 29 30 31 32 33 33 34 35 36 36 36 36 36 36 36 36 36 36 36 36 36 36 36
6 7 8 9 10 11 11 12 13 14 15 16 18 20 21 22 23 24 26 27 28 29 30 31 32 33 34 35 36 36 36 37 37 36 36 36 36 36 35 35 36 36 36 36
5 5 6 7 7 9 9 11 12 14 15 16 17 19 19 20 22 23 25 26 27 29 30 30 31 32 33 34 35 36 36 36 36 36 36 36 36 36 36 36 36 35 35 35
4 3 4 4 5 5 7 9 10 12 14 15 16 18 18 19 20 22 23 25 26 27 28 29 31 31 32 33 34 35 35 35 35 35 36 36 36 35 35 35 35 35 35 35
2 1 2 3 3 5 6 7 9 11 12 12 14 15 17 17 18 20 21 22 24 25 27 28 29 30 31 32 33 33 33 34 35 35 35 35 35 35 34 34 34 34 34 34
2 0 2 3 4 4 6 7 8 9 11 12 12 13 15 15 16 18 19 20 21 23 25 26 27 28 29 30 31 31 32 33 34 34 34 33 33 33 34 34 34 34 34 35
2 1 2 3 4 5 5 6 7 9 10 11 12 12 13 14 15 16 17 19 20 22 23 23 24 25 26 27 28 29 30 31 31 31 31 31 31 32 32 33 33 34 35 35
3 3 3 4 5 5 6 7 8 9 10 11 12 12 13 15 15 16 17 18 19 20 21 21 22 23 24 25 25 26 27 27 28 28 29 29 30 30 31 31 32 33 34 34
4 4 4 5 5 6 7 8 9 10 11 11 12 12 14 15 15 16 17 18 18 19 20 20 21 22 23 23 23 24 24 25 26 26 27 28 28 29 29 30 31 32 32 33
5 6 6 7 7 7 8 9 11 11 12 11 11 13 14 15 16 16 17 17 18 18 19 19 21 21 22 22 23 23 23 24 25 25 26 27 27 28 29 30 31 31 32 32
6 7 7 8 9 9 10 10 11 11 11 11 11 12 14 15 15 16 17 17 18 19 20 21 21 21 21 22 22 23 24 24 25 25 26 26 27 28 29 30 31 32 33 34
8 8 8 9 9 10 11 12 12 12 12 13 13 14 15 16 16 17 17 18 18 19 21 22 23 23 23 23 23 24 24 24 25 25 26 27 28 28 29 30 31 32 34 35
9 10 10 10 11 11 12 12 13 13 14 14 14 15 16 17 18 19 19 20 20 21 22 23 24 25 25 25 25 26 26 26 26 26 27 28 29 30 31 32 33 34 34 35
12 12 12 12 13 13 13 14 15 15 16 16 17 18 18 19 20 21 22 22 22 23 24 24 25 25 26 26 27 27 28 28 28 28 29 29 30 31 32 33 33 34 34 35
15 16 16 16 15 15 16 17 18 18 19 19 20 20 21 21 22 23 23 24 24 25 25 25 25 26 27 27 28 28 29 29 28 29 30 31 32 32 33 33 34 34 35 35
18 18 19 19 19 19 20 21 22 22 22 22 22 22 23 23 23 23 24 26 26 27 27 27 28 28 28 29 29 28 29 30 30 31 32 33 34 34 34 35 35 36 36 37
21 21 21 22 23 23 24 24 25 24 24 24 24 25 25 26 26 27 27 28 29 29 29 30 30 31 31 30 30 30 30 31 32 33 33 34 35 36 36 36 37 37 38 39
24 25 25 26 26 27 27 28 28 27 28 28 28 28 28 28 29 29 30 30 31 31 32 32 32 32 33 32 32 32 33 33 34 35 35 36 36 37 37 38 38 39 39 39
28 29 29 29 29 30 31 31 31 30 30 30 30 30 31 30 31 32 32 32 33 33 33 34 34 34 34 35 35 35 35 36 37 37 37 37 38 38 38 39 39 40 40 41
30 31 32 32 31 32 33 33 33 33 33 33 33 33 33 33 33 33 34 34 34 35 35 36 36 36 37 37 37 38 38 39 38 38 39 39 40 40 40 41 41 41 41 42
31 33 33 33 33 34 34 34 35 35 34 34 34 34 35 35 36 36 36 37 37 38 38 38 38 38 39 39 40 40 40 40 40 40 41 41 41 41 42 42 42 42 42 43
34 35 36 35 35 36 35 36 36 36 36 36 37 37 38 39 38 38 39 39 39 39 39 39 40 40 41 41 42 42 42 42 42 42 42 42 42 42 43 43 43 43 43 43
Wind_Direction
170 179 186 190 194 199 203 208 212 216 219 220 222 225 227 230 232 234 238 240 243 245 247 250 251 253 256 258 260 262 263 264 266 268 270 272 273 275 277 279 281 282 282 283
170 177 183 187 192 197 202 207 211 214 218 221 223 226 230 233 236 238 240 242 245 247 249 251 253 254 256 258 261 262 264 265 267 269 271 272 274 276 278 279 281 281 283 283
168 179 185 190 194 199 204 207 212 216 219 223 226 229 233 236 238 240 242 244 247 249 250 251 253 256 258 260 262 264 265 267 268 270 272 273 275 277 278 279 281 282 283 284
158 174 186 193 195 199 204 208 212 218 222 228 231 233 234 236 240 243 245 247 248 250 252 254 256 258 260 262 264 266 267 267 268 270 272 274 275 276 278 279 281 283 284 285
149 163 176 188 195 200 207 211 216 222 229 234 237 239 238 241 243 245 248 249 251 254 255 257 259 261 262 264 265 266 267 268 269 271 273 274 275 276 277 279 281 283 284 286
136 158 174 186 195 202 210 218 223 229 235 240 241 244 244 245 247 248 251 253 255 256 258 261 262 263 264 266 266 267 268 269 270 272 273 273 275 276 277 279 280 282 284 285
124 144 167 186 199 209 218 224 230 235 240 244 245 249 251 251 250 252 254 256 258 260 262 263 264 266 267 267 267 267 269 269 271 271 272 273 274 275 277 279 281 282 283 284
122 138 158 180 200 217 226 231 236 241 245 248 249 253 255 255 255 256 258 259 262 263 263 264 266 267 268 269 268 268 268 269 270 271 272 273 274 276 277 279 281 282 283 284
106 156 189 203 219 230 238 243 248 251 252 255 256 258 258 259 260 261 262 263 264 264 264 265 266 268 270 270 269 268 268 269 270 271 271 273 275 276 277 278 280 282 283 285
55 294 244 240 241 244 250 255 257 259 261 262 260 260 261 263 265 266 266 265 267 267 268 268 269 270 271 271 271 269 269 270 271 272 272 274 275 276 277 278 280 282 283 284
359 320 285 267 260 261 260 261 264 266 267 268 265 264 265 267 269 270 269 268 268 269 269 270 271 273 274 274 274 273 272 271 271 272 273 274 275 276 277 279 281 283 284 285
343 319 297 284 276 272 270 271 272 273 274 274 272 273 272 274 275 275 274 274 273 274 273 273 274 275 276 277 277 276 274 273 272 272 273 274 275 277 278 281 283 284 284 285
324 313 302 294 288 282 280 280 280 279 280 279 277 276 277 278 281 280 279 278 280 279 278 277 277 278 278 278 279 279 277 276 275 275 275 276 278 279 280 282 284 285 286 287
315 303 301 301 300 295 292 287 286 285 284 279 277 276 278 281 284 285 284 282 281 280 280 279 280 281 281 281 282 281 279 279 279 278 279 279 280 281 282 284 286 287 287 288
322 311 303 300 299 299 298 294 292 290 287 285 282 281 279 282 284 284 283 283 281 280 280 281 282 283 283 283 283 282 282 282 282 281 281 281 282 283 284 285 287 287 288 289
321 314 308 302 300 300 300 298 296 293 290 289 286 284 283 285 286 287 285 285 285 284 282 282 282 282 282 283 284 284 284 284 283 283 282 283 284 285 286 287 287 288 289 290
310 307 305 301 298 299 300 298 297 297 294 291 290 289 289 289 289 288 287 285 285 286 285 283 282 282 282 283 284 283 283 283 283 283 283 284 284 285 286 287 288 289 290 291
302 301 301 300 298 301 301 298 296 295 294 293 292 291 292 290 288 287 287 287 286 287 287 286 285 284 284 284 285 284 283 283 283 283 284 285 286 286 288 288 289 290 291 292
297 297 298 297 296 296 295 295 294 294 294 293 292 291 290 290 290 289 288 288 288 288 288 288 287 287 285 285 286 285 285 285 284 284 285 286 287 287 287 289 289 290 291 291
295 295 295 295 295 295 294 294 294 295 294 294 292 290 289 289 289 289 288 288 289 289 288 288 288 288 288 288 287 286 286 286 285 285 285 285 286 287 287 288 289 290 291 291
292 293 293 293 293 294 294 294 294 294 295 294 292 291 290 289 289 290 289 288 288 288 288 288 288 288 289 289 287 286 287 287 286 286 286 286 287 287 287 288 289 290 290 291
289 290 290 290 291 293 292 292 293 293 293 292 292 290 289 289 289 289 289 288 287 287 288 288 288 288 288 288 287 287 287 288 288 288 288 288 288 288 289 289 289 290 290 290
287 288 288 289 290 291 290 291 291 292 292 292 291 290 289 289 288 288 288 288 288 288 288 288 287 287 287 287 287 287 288 288 289 289 289 289 289 289 289 289 290 290 290 290
287 287 287 288 289 288 289 291 291 292 292 292 291 291 290 288 287 286 286 287 288 289 288 287 287 286 286 287 287 286 287 288 289 289 288 288 288 288 288 289 290 290 290 290
288 286 286 287 287 287 288 289 290 291 292 292 292 291 290 289 288 286 286 287 287 288 288 287 287 286 286 286 287 287 287 287 288 288 288 288 288 288 288 289 290 290 290 290
287 287 286 287 287 287 288 288 289 290 290 290 290 290 289 288 288 287 287 287 287 288 288 287 287 286 286 286 287 287 287 287 287 287 287 287 287 288 289 290 290 290 290 290
Height
5692 5697 5700 5704 5708 5712 5715 5719 5723 5727 5731 5734 5738 5742 5745 5748 5751 5754 5757 5759 5762 5764 5766 5768 5769 5771 5772 5773 5773 5774 5775 5775 5775 5775 5775 5774 5773 5773 5772 5770 5769 5767 5766 5764
5696 5698 5701 5704 5708 5711 5715 5719 5722 5725 5729 5732 5735 5738 5741 5744 5747 5749 5752 5754 5756 5758 5760 5762 5763 5764 5765 5766 5766 5767 5767 5768 5768 5767 5767 5766 5766 5764 5763 5762 5761 5759 5757 5755
5697 5701 5702 5705 5708 5711 5715 5718 5721 5724 5727 5730 5733 5736 5738 5740 5742 5744 5747 5749 5750 5752 5754 5755 5756 5757 5758 5759 5759 5760 5760 5760 5760 5759 5759 5758 5758 5756 5755 5754 5752 5751 5749 5747
5699 5701 5703 5706 5709 5711 5714 5717 5720 5723 5725 5727 5730 5733 5735 5736 5738 5740 5742 5743 5745 5746 5747 5748 5749 5750 5751 5752 5752 5752 5752 5752 5752 5751 5751 5750 5749 5748 5747 5745 5744 5742 5740 5738
5701 5702 5704 5707 5709 5712 5714 5716 5719 5721 5723 5725 5727 5729 5732 5732 5734 5735 5737 5738 5739 5740 5741 5742 5742 5743 5743 5744 5744 5744 5744 5744 5744 5743 5742 5742 5741 5740 5738 5737 5735 5734 5732 5730
5703 5704 5706 5707 5709 5712 5714 5716 5718 5719 5721 5723 5724 5725 5728 5728 5729 5730 5732 5732 5733 5734 5735 5735 5735 5736 5736 5736 5736 5736 5736 5735 5735 5735 5734 5733 5732 5731 5730 5728 5727 5725 5723 5721
5705 5706 5707 5708 5710 5712 5713 5715 5717 5717 5718 5720 5721 5721 5724 5724 5725 5725 5726 5727 5727 5728 5728 5728 5728 5728 5728 5728 5727 5727 5727 5727 5726 5726 5725 5724 5723 5722 5721 5720 5718 5716 5715 5713
5707 5708 5708 5709 5710 5711 5712 5714 5716 5716 5717 5717 5717 5718 5720 5720 5720 5720 5721 5721 5721 5721 5722 5721 5721 5721 5720 5719 5718 5718 5718 5718 5717 5717 5716 5716 5715 5714 5713 5711 5710 5708 5706 5704
5708 5709 5709 5709 5710 5711 5711 5712 5713 5714 5714 5714 5714 5715 5715 5715 5715 5715 5715 5715 5715 5715 5715 5714 5714 5713 5712 5711 5710 5709 5709 5709 5708 5708 5707 5707 5706 5705 5704 5702 5701 5699 5697 5695
5709 5709 5709 5709 5710 5710 5711 5711 5711 5711 5711 5711 5712 5711 5712 5711 5710 5710 5710 5710 5709 5709 5708 5707 5706 5705 5704 5703 5702 5701 5701 5700 5700 5699 5698 5698 5697 5696 5695 5694 5692 5691 5689 5687
5709 5709 5709 5709 5709 5709 5709 5709 5709 5709 5709 5709 5708 5711 5708 5707 5706 5705 5705 5704 5703 5702 5701 5700 5699 5698 5697 5696 5695 5693 5693 5692 5691 5690 5690 5689 5688 5687 5686 5685 5684 5682 5680 5678
5709 5709 5708 5709 5708 5707 5707 5707 5707 5707 5706 5705 5705 5708 5704 5702 5701 5701 5700 5699 5698 5697 5695 5694 5693 5692 5690 5689 5688 5686 5685 5684 5684 5683 5682 5681 5679 5679 5677 5676 5675 5673 5671 5669
5709 5709 5708 5708 5709 5707 5705 5705 5704 5704 5703 5702 5702 5704 5699 5698 5697 5696 5695 5693 5692 5691 5690 5689 5687 5686 5684 5683 5681 5680 5679 5678 5676 5675 5674 5673 5672 5671 5669 5668 5667 5665 5663 5661
5707 5707 5707 5707 5705 5704 5703 5703 5701 5700 5699 5699 5698 5698 5695 5693 5693 5691 5690 5689 5687 5686 5685 5683 5682 5680 5678 5677 5675 5674 5672 5671 5670 5668 5667 5666 5665 5663 5662 5660 5658 5656 5654 5652
5706 5706 5704 5704 5703 5702 5701 5700 5698 5697 5696 5695 5695 5693 5691 5689 5688 5687 5685 5684 5682 5680 5679 5677 5676 5674 5672 5671 5669 5667 5666 5664 5663 5661 5660 5659 5657 5656 5654 5652 5650 5648 5645 5643
5704 5704 5703 5702 5700 5699 5698 5696 5695 5694 5692 5691 5690 5689 5687 5685 5683 5682 5680 5678 5677 5675 5673 5671 5669 5668 5666 5664 5662 5661 5659 5657 5656 5654 5653 5651 5649 5648 5646 5644 5641 5639 5636 5633
5702 5701 5700 5699 5697 5696 5695 5693 5691 5690 5688 5687 5686 5685 5683 5681 5679 5676 5674 5673 5671 5669 5667 5664 5662 5661 5659 5657 5655 5654 5652 5650 5648 5647 5645 5643 5641 5639 5637 5635 5632 5630 5627 5624
5699 5698 5696 5695 5695 5693 5693 5689 5687 5686 5684 5683 5681 5679 5678 5676 5673 5671 5669 5666 5664 5662 5660 5658 5655 5653 5652 5650 5648 5646 5644 5642 5640 5639 5637 5635 5633 5630 5628 5625 5623 5620 5617 5614
5695 5694 5692 5691 5689 5688 5687 5684 5682 5681 5679 5677 5675 5673 5671 5669 5667 5665 5662 5660 5658 5655 5653 5650 5648 5646 5644 5642 5640 5638 5636 5634 5632 5630 5628 5626 5623 5621 5618 5616 5613 5610 5607 5604
5690 5689 5688 5686 5683 5683 5682 5679 5676 5675 5673 5671 5669 5667 5665 5662 5661 5659 5656 5653 5650 5648 5645 5643 5640 5638 5636 5634 5632 5629 5627 5625 5623 5621 5619 5616 5614 5611 5609 5606 5603 5600 5597 5594
5685 5683 5682 5679 5677 5676 5675 5672 5670 5669 5668 5664 5661 5659 5657 5655 5653 5651 5648 5645 5642 5640 5637 5634 5632 5630 5628 5625 5623 5621 5618 5616 5614 5611 5609 5607 5604 5601 5599 5596 5593 5590 5587 5583
5678 5677 5675 5673 5671 5671 5667 5664 5663 5661 5658 5656 5653 5651 5649 5647 5644 5642 5639 5636 5633 5631 5628 5626 5623 5621 5619 5616 5614 5612 5609 5607 5604 5602 5599 5596 5593 5591 5588 5585 5582 5579 5575 5572
5671 5670 5667 5666 5666 5661 5658 5655 5654 5652 5649 5647 5644 5642 5640 5637 5635 5632 5629 5626 5624 5621 5619 5616 5614 5611 5609 5606 5604 5602 5599 5597 5594 5591 5588 5586 5583 5579 5576 5573 5570 5567 5564 5561
5663 5660 5658 5656 5655 5652 5649 5646 5644 5642 5640 5637 5635 5632 5629 5627 5624 5622 5619 5617 5614 5611 5609 5606 5604 5601 5599 5596 5593 5591 5588 5586 5583 5580 5577 5574 5571 5568 5565 5562 5559 5555 5552 5549
5653 5649 5647 5646 5645 5642 5640 5637 5635 5632 5629 5627 5624 5622 5619 5616 5614 5611 5609 5606 5603 5601 5598 5595 5593 5590 5588 5585 5582 5579 5577 5574 5572 5569 5566 5562 5559 5556 5553 5550 5546 5543 5540 5536
5642 5639 5637 5636 5634 5631 5630 5627 5624 5622 5619 5616 5614 5611 5607 5604 5602 5599 5597 5594 5592 5589 5586 5583 5581 5578 5576 5573 5570 5567 5564 5561 5559 5556 5553 5550 5547 5543 5540 5537 5534 5530 5527 5523